Date,TemperatureHighF,TemperatureAvgF,TemperatureLowF,DewpointHighF,DewpointAvgF,DewpointLowF,HumidityHigh,HumidityAvg,HumidityLow,PressureMaxIn,PressureMinIn,WindSpeedMaxMPH,WindSpeedAvgMPH,GustSpeedMaxMPH,PrecipitationSumIn
2013-3-1,51,45,38,34,32,28,82,61,47,29.97,29.73,22,9,36,0.02
2013-3-2,54,47,42,39,34,27,75,60,50,29.97,29.88,13,4,22,0.00
2013-3-3,59,50,45,46,40,34,86,69,57,29.92,29.73,7,0,13,0.00
2013-3-4,60,54,46,47,41,33,81,64,39,29.72,29.34,23,7,31,0.04
2013-3-5,57,52,48,49,46,44,90,79,69,29.46,29.36,8,2,16,0.51
2013-3-6,61,53,49,55,49,45,94,84,66,29.79,29.43,12,1,18,0.28
2013-3-7,56,54,52,55,51,46,96,90,77,29.84,29.74,13,2,25,0.63
2013-3-8,64,56,50,54,48,44,86,74,63,29.89,29.83,8,2,17,0.00
2013-3-9,57,53,47,54,49,38,92,86,71,29.86,29.80,6,0,14,0.06
2013-3-10,57,50,46,48,42,38,87,75,65,29.89,29.79,9,1,21,0.06
2013-3-11,57,50,45,46,41,39,82,73,59,29.91,29.83,10,3,28,0.02
2013-3-12,51,48,45,49,44,39,95,86,68,29.87,29.57,10,1,24,0.26
2013-3-13,50,46,42,40,30,22,79,55,41,29.86,29.58,17,7,39,0.00
2013-3-14,56,46,39,27,22,18,52,40,29,30.00,29.83,25,9,39,0.00
2013-3-15,57,49,42,40,30,20,67,48,36,30.03,29.95,12,4,19,0.00
2013-3-16,55,49,44,48,35,22,84,61,33,30.00,29.79,7,1,14,0.04
2013-3-17,61,56,48,54,46,40,83,70,50,29.80,29.58,14,3,18,0.06
2013-3-18,67,59,50,44,34,23,70,40,28,29.76,29.71,8,3,16,0.04
2013-3-19,56,53,50,50,43,24,93,71,31,29.73,29.60,8,1,15,0.40
2013-3-20,60,53,46,50,41,33,93,67,45,30.05,29.63,17,3,28,0.02
2013-3-21,64,54,47,46,40,35,73,61,45,30.05,29.91,7,2,16,0.00
2013-3-22,61,52,47,50,41,32,89,68,52,29.91,29.77,7,0,14,0.08
2013-3-23,60,48,44,46,40,35,90,74,55,29.77,29.59,9,1,17,0.28
2013-3-24,56,49,43,47,42,37,91,76,64,29.88,29.62,10,3,24,0.06
2013-3-25,57,52,46,47,42,34,82,70,56,29.97,29.86,14,5,28,0.02
2013-3-26,64,55,49,52,46,41,84,73,54,29.90,29.75,9,2,22,0.00
2013-3-27,63,55,49,52,48,43,88,78,53,29.77,29.67,9,1,21,0.04
2013-3-28,65,56,50,53,46,43,82,70,52,29.99,29.71,10,2,22,0.02
2013-3-29,68,58,50,51,46,42,82,65,47,30.00,29.96,15,4,28,0.00
2013-3-30,65,59,54,52,48,40,92,69,49,30.01,29.92,13,3,25,0.38
2013-3-31,62,57,53,55,49,40,92,75,52,29.93,29.72,7,1,17,0.06